{"data":{"norad_id":59887,"intl_designator":"2024-100C","name":"STARLINK-31976","alt_names":[],"object_type":"PAYLOAD","status":"ACTIVE","operator":null,"country":"US","launch_date":"2024-05-28","launch_site_code":"AFETR","launch_vehicle":null,"mission":null,"orbit_class":"UNKNOWN","rcs_meters":null,"size_class":null,"mass_kg":null,"dimensions":null,"purposes":["comms"],"wikipedia_slug":null,"has_3d_model":false,"image_url":null,"decayed_at":null,"tle_current":{"epoch":"2026-09-21T22:20:50.226432Z","epoch_age_seconds":50927,"freshness":"FRESH","line1":"1 59887U 24100C   26264.93113688 -.00000100  00000+0  58832-5 0  9995","line2":"2 59887  43.0028 101.0665 0000932 274.5333  85.5412 15.27574796131122","mean_motion":15.27574796,"eccentricity":9.32e-5,"inclination_deg":43.0028,"raan_deg":101.0665,"arg_perigee_deg":274.5333,"mean_anomaly_deg":85.5412,"bstar":5.8832e-6,"rev_number":13112,"period_min":94.26706985286,"perigee_km":482.42521473556,"apogee_km":483.70414272848,"semimajor_km":6861.201678732,"source":"CELESTRAK","updated_at":"2026-09-22T09:00:49.105624Z"}}}